User: anonymous   Login
Location: Caltech
(34.1382°N, 118.1253°W)
Time: 01:04:58
(UTC-08:00)
Language:

Courier 1B - Orbit

View from above orbital plane
View from above orbital plane
View from above satellite
View from above satellite

Ground track
Ground track

The orbit data is extracted from the following two-line orbital elements,

1    58U 60013A   17327.61329383 +.00000095 +00000-0 +10032-4 0  9992
2    58 028.3265 167.4234 0165039 233.1438 125.3871 13.46311713812273
Epoch (UTC): 23 November 2017 14:43:08
Eccentricity: 0.0165039
inclination: 28.3265°
perigee height: 962 km
apogee height: 1209 km
right ascension of ascending node: 167.4234°
argument of perigee: 233.1438°
revolutions per day: 13.46311713
mean anomaly at epoch: 125.3871°
orbit number at epoch: 81227

The dashed part of the orbit path shows where the satellite is in the earth's shadow,  

DLR